This demonstration page uses our WeatherBlox Daily Observations layout. Learn more.

Left ArrowRight Arrow

Hourly Observations for June 30, 2021

Temp ( °F °C ) Dew Point ( °F °C ) Humidity (%) Winds ( mph kmh ) Pressure ( in mb ) Visibility ( mi km ) Precip ( " mm )
12:51 am 00:51 Clear 77 25 58 14.4 52 52 ESE 9 15 29.88 1012 10 16 N/A
1:51 am 01:51 Clear 75 23.9 58 14.4 55 55 ESE 8 13 29.88 1012 10 16 N/A
2:51 am 02:51 Clear 72 22.2 57 13.9 59 59 ESE 5 7 29.89 1012 10 16 N/A
3:51 am 03:51 Clear 72 22.2 57 13.9 59 59 ESE 7 11 29.88 1012 10 16 N/A
4:51 am 04:51 Clear 72 22.2 58 14.4 61 61 ESE 6 9 29.89 1012 10 16 N/A
5:51 am 05:51 Sunny 71 21.7 58 14.4 63 63 E 6 9 29.91 1013 10 16 N/A
6:51 am 06:51 Sunny 74 23.3 58 14.4 57 57 SE 7 11 29.92 1013 10 16 N/A
7:51 am 07:51 Sunny 76 24.4 58 14.4 54 54 SE 7 11 29.93 1014 10 16 N/A
8:51 am 08:51 Sunny 79 26.1 58 14.4 49 49 VRB 3 6 29.93 1014 10 16 N/A
9:51 am 09:51 Sunny 82 27.8 58 14.4 44 44 SE 7 11 29.92 1013 10 16 N/A
10:51 am 10:51 Sunny 84 28.9 59 15 43 43 SSW 9 15 29.91 1013 10 16 N/A
11:51 am 11:51 Sunny 85 29.4 59 15 42 42 S 12 19 29.89 1012 10 16 N/A
12:51 pm 12:51 Sunny 88 31.1 59 15 38 38 S 12 19 29.86 1011 10 16 N/A
1:51 pm 13:51 Sunny 88 31.1 58 14.4 36 36 S 13 20 29.85 1011 10 16 N/A
2:51 pm 14:51 Sunny 88 31.1 58 14.4 36 36 SSE 6 9 29.84 1010 10 16 N/A
3:51 pm 15:51 Sunny 91 32.8 57 13.9 32 32 SE 8 13 29.82 1010 10 16 N/A
4:51 pm 16:51 Sunny 91 32.8 58 14.4 33 33 SSE 10 17 29.80 1009 10 16 N/A
5:51 pm 17:51 Sunny 90 32.2 57 13.9 33 33 SSE 15 24 29.80 1009 10 16 N/A
6:51 pm 18:51 Mostly Sunny 88 31.1 57 13.9 35 35 ESE 12 19 29.82 1010 10 16 N/A
7:51 pm 19:51 Cloudy 86 30 58 14.4 39 39 ESE 8 13 29.83 1010 10 16 N/A
8:51 pm 20:51 Mostly Cloudy 79 26.1 60 15.6 52 52 W 15 24 29.87 1012 10 16 N/A
9:51 pm 21:51 Clear 76 24.4 61 16.1 60 60 NNW 8 13 29.88 1012 10 16 N/A
10:51 pm 22:51 Clear 76 24.4 61 16.1 60 60 E 6 9 29.87 1012 10 16 N/A
11:51 pm 23:51 Clear 77 25 60 15.6 56 56 ESE 6 9 29.87 1012 10 16 N/A

Powered by AerisWeather